Project,Study,Ord_Occ,Event_Num,Cast_ID,Date_Time_UTC,Date_Time_PST,Lat_Dec,Lon_Dec,Sta_ID,Line,Sta,Depth,Pressure,PrQ,Temp1,Temp1Q,Temp2,Temp2Q,TempAve,Salt1,Salt1Q,Salt1_Corr,Salt2,Salt2Q,Salt2_Corr,SaltAve_Corr,Ox1,Ox1Q,Ox1_CruiseCorr,Ox1_StaCorr,Ox2,Ox2Q,Ox2_CruiseCorr,Ox2_StaCorr,OxAve_StaCorr,Ox1uM,Ox1uM_CruiseCorr,Ox1uM_StaCorr,Ox2uM,Ox2uM_CruiseCorr,Ox2uM_StaCorr,OxAveuM_StaCorr,FluorV,FluorQ,EstChl_CruiseCorr,EstChl_StaCorr,ISUSV,ISUSQ,EstNO3_CruiseCorr,EstNO3_StaCorr,SigThetaTS1,SigThetaTS1Q,SigThetaTS2,SigThetaTS2Q,BAT,XMiss,TransQ,pH,pHQ,SPAR,SPARQ,PAR,PARQ,PoT1,PoT2,DynHt,SVA,OxSat1,OxSat2,BTL_Depth,BTL_Temp,SaltB,OxB,OxBuM,Chl-a,Phaeo,NO3,NO2,NH4,PO4,SIL
CalCOFI,2007SR,016,,2007_016d,16-Jul-2020 05:55:15,15-Jul-2020 21:55:15,30.18140,-122.92116,093.3 110.0,093.3,110.0,1.000,1.007,,19.5527,,19.5527,,19.5527,33.4676,,33.4678,33.4679,,33.4695,33.4687,5.1579,,5.3718,5.3082,3.8948,,5.3569,4.1417,4.7250,225.017,234.4071,231.9603,169.912,384.8146,177.6424,204.8014,0.0317,,,0.0561,0.4098,,1.2676,2.484,23.7094,,23.7095,,0.6524,84.9479,,8.139,,1.9199E+00,,5.2404E-01,,19.5526,19.5526,-0.0026,,97.961,73.971,,,,,,,,,,,,
CalCOFI,2007SR,016,,2007_016d,16-Jul-2020 05:55:32,15-Jul-2020 21:55:32,30.18140,-122.92116,093.3 110.0,093.3,110.0,2.000,2.014,,19.5510,,19.5503,,19.5507,33.4678,,33.4680,33.4679,,33.4695,33.4688,5.1668,,5.3811,5.3174,3.8884,,5.3416,4.1279,4.7227,225.406,234.8132,232.3672,169.635,385.7661,177.0050,204.6861,0.0325,,,0.0598,0.4078,,1.2114,2.429,23.7100,,23.7102,,0.6634,84.7207,,8.141,,1.8783E+00,,3.4202E-01,,19.5507,19.5500,0.0051,,98.127,73.847,,,,,,,,,,,,
CalCOFI,2007SR,016,,2007_016d,16-Jul-2020 05:55:37,15-Jul-2020 21:55:37,30.18140,-122.92116,093.3 110.0,093.3,110.0,3.000,3.021,,19.5522,,19.5521,,19.5522,33.4677,,33.4679,33.4678,,33.4694,33.4687,5.1613,,5.3753,5.3117,3.8854,,5.3344,4.1214,4.7166,225.167,234.5637,232.1172,169.501,385.1815,176.6967,204.4070,0.0317,,,0.0561,0.3943,,0.8324,2.055,23.7097,,23.7098,,0.6547,84.9021,,8.142,,1.9032E+00,,2.7653E-01,,19.5517,19.5515,0.0102,,98.026,73.792,3,19.538,33.4598,5.383,234.95,0.062,0.014,0.10,0.00,0.20,0.26,1.43
CalCOFI,2007SR,016,,2007_016d,16-Jul-2020 05:55:41,15-Jul-2020 21:55:41,30.18140,-122.92116,093.3 110.0,093.3,110.0,4.000,4.027,,19.5527,,19.5526,,19.5527,33.4680,,33.4682,33.4681,,33.4697,33.4690,5.1609,,5.3749,5.3113,3.8861,,5.3361,4.1229,4.7171,225.148,234.5439,232.0973,169.534,385.1351,176.7726,204.4350,0.0315,,,0.0552,0.3867,,0.6190,1.845,23.7098,,23.7099,,0.6542,84.9112,,8.143,,1.9043E+00,,2.5243E-01,,19.5520,19.5519,0.0145,,98.019,73.807,,,,,,,,,,,,
CalCOFI,2007SR,016,,2007_016d,16-Jul-2020 05:55:42,15-Jul-2020 21:55:42,30.18140,-122.92116,093.3 110.0,093.3,110.0,5.000,5.034,,19.5535,,19.5535,,19.5535,33.4682,,33.4684,33.4682,,33.4698,33.4691,5.1616,,5.3757,5.3120,3.8866,,5.3373,4.1240,4.7180,225.178,234.5752,232.1287,169.557,385.2084,176.8255,204.4771,0.0311,,,0.0534,0.3852,,0.5768,1.804,23.7098,,23.7098,,0.6545,84.9055,,8.143,,1.9043E+00,,2.5006E-01,,19.5526,19.5525,0.0187,,98.033,73.818,,,,,,,,,,,,
CalCOFI,2007SR,016,,2007_016d,16-Jul-2020 05:55:43,15-Jul-2020 21:55:43,30.18142,-122.92116,093.3 110.0,093.3,110.0,6.000,6.041,,19.5544,,19.5543,,19.5544,33.4681,,33.4683,33.4682,,33.4698,33.4691,5.1622,,5.3763,5.3127,3.8861,,5.3361,4.1229,4.7178,225.203,234.6013,232.1548,169.535,385.2696,176.7749,204.4649,0.0334,,,0.0639,0.3834,,0.5263,1.754,23.7095,,23.7096,,0.6550,84.8956,,8.143,,1.9043E+00,,2.3954E-01,,19.5533,19.5532,0.0229,,98.045,73.809,,,,,,,,,,,,
CalCOFI,2007SR,016,,2007_016d,16-Jul-2020 05:55:47,15-Jul-2020 21:55:47,30.18141,-122.92116,093.3 110.0,093.3,110.0,7.000,7.048,,19.5543,,19.5541,,19.5542,33.4680,,33.4682,33.4681,,33.4697,33.4690,5.1604,,5.3744,5.3108,3.8868,,5.3378,4.1244,4.7176,225.124,234.5188,232.0722,169.563,385.0764,176.8393,204.4558,0.0320,,,0.0575,0.3819,,0.4842,1.712,23.7095,,23.7097,,0.6545,84.9046,,8.143,,1.9043E+00,,1.9430E-01,,19.5530,19.5528,0.0271,,98.011,73.821,,,,,,,,,,,,
CalCOFI,2007SR,016,,2007_016d,16-Jul-2020 05:55:50,15-Jul-2020 21:55:50,30.18140,-122.92116,093.3 110.0,093.3,110.0,8.000,8.055,,19.5535,,19.5535,,19.5535,33.4681,,33.4683,33.4681,,33.4697,33.4690,5.1619,,5.3760,5.3123,3.8855,,5.3347,4.1216,4.7170,225.189,234.5867,232.1402,169.506,385.2353,176.7082,204.4242,0.0321,,,0.0580,0.3824,,0.4982,1.726,23.7099,,23.7098,,0.6548,84.8987,,8.143,,1.9043E+00,,1.6035E-01,,19.5520,19.5520,0.0313,,98.038,73.796,,,,,,,,,,,,
CalCOFI,2007SR,016,,2007_016d,16-Jul-2020 05:55:51,15-Jul-2020 21:55:51,30.18140,-122.92116,093.3 110.0,093.3,110.0,9.000,9.062,,19.5538,,19.5536,,19.5537,33.4681,,33.4683,33.4682,,33.4698,33.4691,5.1617,,5.3758,5.3121,3.8885,,5.3418,4.1281,4.7201,225.184,234.5815,232.1350,169.638,385.2231,177.0119,204.5735,0.0307,,,0.0515,0.3813,,0.4673,1.696,23.7098,,23.7100,,0.6550,84.8939,,8.143,,1.9043E+00,,1.5376E-01,,19.5521,19.5520,0.0355,,98.036,73.854,,,,,,,,,,,,
CalCOFI,2007SR,016,,2007_016d,16-Jul-2020 05:55:52,15-Jul-2020 21:55:52,30.18140,-122.92116,093.3 110.0,093.3,110.0,10.000,10.069,,19.5536,,19.5536,,19.5536,33.4680,,33.4682,33.4681,,33.4697,33.4690,5.1639,,5.3781,5.3144,3.8880,,5.3406,4.1270,4.7207,225.277,234.6786,232.2322,169.615,385.4506,176.9590,204.5956,0.0313,,,0.0543,0.3792,,0.4084,1.638,23.7098,,23.7099,,0.6560,84.8739,,8.143,,1.9043E+00,,1.4721E-01,,19.5518,19.5518,0.0397,,98.076,73.843,,,,,,,,,,,,
CalCOFI,2007SR,016,,2007_016d,16-Jul-2020 05:55:53,15-Jul-2020 21:55:53,30.18141,-122.92116,093.3 110.0,093.3,110.0,11.000,11.076,,19.5231,,19.5238,,19.5235,33.4654,,33.4656,33.4651,,33.4667,33.4662,5.1669,,5.3812,5.3176,3.8882,,5.3411,4.1274,4.7225,225.406,234.8132,232.3672,169.626,385.7661,176.9843,204.6758,0.0322,,,0.0584,0.3764,,0.3297,1.560,23.7158,,23.7154,,0.6556,84.8824,,8.143,,1.9043E+00,,1.3760E-01,,19.5212,19.5218,0.0440,,98.076,73.806,,,,,,,,,,,,
CalCOFI,2007SR,016,,2007_016d,16-Jul-2020 05:55:57,15-Jul-2020 21:55:57,30.18141,-122.92116,093.3 110.0,093.3,110.0,12.000,12.083,,19.5254,,19.5277,,19.5266,33.4675,,33.4677,33.4678,,33.4694,33.4686,5.1629,,5.3770,5.3134,3.8874,,5.3392,4.1257,4.7196,225.233,234.6326,232.1862,169.588,385.3429,176.8969,204.5416,0.0310,,,0.0529,0.3656,,0.0265,1.262,23.7168,,23.7164,,0.6559,84.8749,,8.143,,1.9043E+00,,1.1741E-01,,19.5233,19.5255,0.0492,,98.006,73.797,12,19.512,33.4530,5.366,234.21,0.063,0.013,0.0,0.00,0.07,0.25,1.40
CalCOFI,2007SR,016,,2007_016d,16-Jul-2020 05:56:00,15-Jul-2020 21:56:00,30.18140,-122.92116,093.3 110.0,093.3,110.0,13.000,13.090,,19.5119,,19.5164,,19.5142,33.4652,,33.4654,33.4666,,33.4682,33.4668,5.1708,,5.3853,5.3216,3.8892,,5.3435,4.1296,4.7256,225.579,234.9938,232.5481,169.666,386.1892,177.0763,204.8122,0.0313,,,0.0543,0.3593,,0.0000,1.087,23.7186,,23.7185,,0.6557,84.8803,,8.143,,1.9043E+00,,9.4148E-02,,19.5095,19.5141,0.0538,,98.131,73.815,,,,,,,,,,,,
CalCOFI,2007SR,016,,2007_016d,16-Jul-2020 05:56:01,15-Jul-2020 21:56:01,30.18140,-122.92116,093.3 110.0,093.3,110.0,14.000,14.097,,19.4842,,19.4902,,19.4872,33.4617,,33.4619,33.4620,,33.4636,33.4628,5.1670,,5.3813,5.3177,3.8917,,5.3495,4.1350,4.7264,225.410,234.8174,232.3713,169.777,385.7759,177.3318,204.8516,0.0317,,,0.0561,0.3574,,0.0000,1.035,23.7231,,23.7217,,0.6558,84.8788,,8.143,,1.9043E+00,,1.0493E-01,,19.4816,19.4877,0.0580,,98.006,73.825,,,,,,,,,,,,
CalCOFI,2007SR,016,,2007_016d,16-Jul-2020 05:56:02,15-Jul-2020 21:56:02,30.18141,-122.92116,093.3 110.0,093.3,110.0,15.000,15.104,,19.4537,,19.4529,,19.4533,33.4595,,33.4597,33.4600,,33.4616,33.4607,5.1676,,5.3819,5.3183,3.8940,,5.3549,4.1400,4.7292,225.434,234.8425,232.3964,169.875,385.8346,177.5573,204.9769,0.0319,,,0.0571,0.3549,,0.0000,0.966,23.7292,,23.7299,,0.6563,84.8670,,8.143,,1.9043E+00,,9.0908E-02,,19.4510,19.4502,0.0622,,97.960,73.817,,,,,,,,,,,,
CalCOFI,2007SR,016,,2007_016d,16-Jul-2020 05:56:03,15-Jul-2020 21:56:03,30.18142,-122.92116,093.3 110.0,093.3,110.0,16.000,16.111,,19.4770,,19.4870,,19.4820,33.4635,,33.4637,33.4649,,33.4665,33.4651,5.1715,,5.3860,5.3223,3.8904,,5.3464,4.1322,4.7273,225.605,235.0210,232.5753,169.718,386.2528,177.1960,204.8857,0.0325,,,0.0598,0.3516,,0.0000,0.875,23.7264,,23.7249,,0.6566,84.8614,,8.143,,1.9043E+00,,8.7140E-02,,19.4741,19.4841,0.0664,,98.079,73.797,,,,,,,,,,,,
CalCOFI,2007SR,016,,2007_016d,16-Jul-2020 05:56:07,15-Jul-2020 21:56:07,30.18141,-122.92117,093.3 110.0,093.3,110.0,17.000,17.117,,19.4843,,19.4887,,19.4865,33.4617,,33.4619,33.4636,,33.4652,33.4636,5.1677,,5.3820,5.3184,3.8886,,5.3421,4.1283,4.7234,225.441,234.8498,232.4038,169.640,385.8517,177.0165,204.7102,0.0327,,,0.0607,0.3369,,0.0000,0.468,23.7232,,23.7235,,0.6554,84.8855,,8.143,,1.9043E+00,,6.4516E-02,,19.4813,19.4856,0.0719,,98.019,73.765,,,,,,,,,,,,
CalCOFI,2007SR,016,,2007_016d,16-Jul-2020 05:56:10,15-Jul-2020 21:56:10,30.18140,-122.92117,093.3 110.0,093.3,110.0,18.000,18.124,,19.4222,,19.4376,,19.4299,33.4527,,33.4529,33.4519,,33.4535,33.4532,5.1743,,5.3889,5.3253,3.8930,,5.3526,4.1378,4.7316,225.727,235.1483,232.7029,169.833,386.5512,177.4606,205.0818,0.0309,,,0.0525,0.3301,,0.0000,0.280,23.7323,,23.7278,,0.6564,84.8643,,8.144,,1.9043E+00,,5.6528E-02,,19.4189,19.4343,0.0773,,98.027,73.774,,,,,,,,,,,,
CalCOFI,2007SR,016,,2007_016d,16-Jul-2020 05:56:10,15-Jul-2020 21:56:10,30.18140,-122.92116,093.3 110.0,093.3,110.0,19.000,19.131,,19.4100,,19.4069,,19.4085,33.4549,,33.4551,33.4554,,33.4570,33.4561,5.1752,,5.3899,5.3262,3.8939,,5.3547,4.1397,4.7330,225.765,235.1880,232.7426,169.868,386.6441,177.5412,205.1419,0.0309,,,0.0525,0.3289,,0.0000,0.247,23.7371,,23.7384,,0.6567,84.8591,,8.144,,1.9043E+00,,4.6451E-02,,19.4066,19.4034,0.0814,,98.023,73.749,,,,,,,,,,,,
CalCOFI,2007SR,016,,2007_016d,16-Jul-2020 05:56:11,15-Jul-2020 21:56:11,30.18140,-122.92116,093.3 110.0,093.3,110.0,20.000,20.138,,19.4128,,19.4136,,19.4132,33.4540,,33.4542,33.4551,,33.4567,33.4555,5.1765,,5.3912,5.3275,3.8933,,5.3533,4.1384,4.7330,225.821,235.2464,232.8012,169.844,386.7811,177.4859,205.1436,0.0313,,,0.0543,0.3273,,0.0000,0.203,23.7358,,23.7364,,0.6567,84.8586,,8.144,,1.9043E+00,,4.5049E-02,,19.4092,19.4100,0.0856,,98.051,73.748,,,,,,,,,,,,
CalCOFI,2007SR,016,,2007_016d,16-Jul-2020 05:56:15,15-Jul-2020 21:56:15,30.18141,-122.92116,093.3 110.0,093.3,110.0,21.000,21.145,,19.4140,,19.4158,,19.4149,33.4549,,33.4551,33.4552,,33.4568,33.4560,5.1766,,5.3913,5.3276,3.8933,,5.3533,4.1384,4.7330,225.826,235.2517,232.8064,169.841,386.7933,177.4790,205.1427,0.0321,,,0.0580,0.3223,,0.0000,0.064,23.7362,,23.7360,,0.6561,84.8716,,8.143,,1.9043E+00,,2.0006E-02,,19.4102,19.4120,0.0901,,98.056,73.750,,,,,,,,,,,,
CalCOFI,2007SR,016,,2007_016d,16-Jul-2020 05:56:17,15-Jul-2020 21:56:17,30.18140,-122.92116,093.3 110.0,093.3,110.0,22.000,22.152,,19.4404,,19.4386,,19.4395,33.4591,,33.4593,33.4601,,33.4617,33.4605,5.1677,,5.3820,5.3184,3.8922,,5.3506,4.1361,4.7273,225.441,234.8498,232.4038,169.795,385.8517,177.3732,204.8885,0.0314,,,0.0548,0.3227,,0.0000,0.075,23.7327,,23.7339,,0.6565,84.8620,,8.143,,1.9043E+00,,1.1321E-02,,19.4364,19.4346,0.0944,,97.939,73.763,,,,,,,,,,,,
CalCOFI,2007SR,016,,2007_016d,16-Jul-2020 05:56:19,15-Jul-2020 21:56:19,30.18140,-122.92116,093.3 110.0,093.3,110.0,23.000,23.159,,19.4381,,19.4405,,19.4393,33.4586,,33.4588,33.4581,,33.4597,33.4593,5.1656,,5.3798,5.3162,3.8915,,5.3490,4.1346,4.7254,225.349,234.7537,232.3075,169.764,385.6267,177.3018,204.8047,0.0319,,,0.0571,0.3231,,0.0000,0.086,23.7329,,23.7320,,0.6574,84.8435,,8.143,,1.9043E+00,,1.3640E-03,,19.4339,19.4364,0.0986,,97.894,73.751,,,,,,,,,,,,
CalCOFI,2007SR,016,,2007_016d,16-Jul-2020 05:56:20,15-Jul-2020 21:56:20,30.18140,-122.92116,093.3 110.0,093.3,110.0,24.000,24.166,,19.4150,,19.3985,,19.4068,33.4525,,33.4527,33.4518,,33.4534,33.4531,5.1727,,5.3873,5.3236,3.8931,,5.3528,4.1380,4.7308,225.657,235.0752,232.6297,169.835,386.3800,177.4652,205.0475,0.0322,,,0.0584,0.3241,,0.0000,0.114,23.7343,,23.7380,,0.6570,84.8514,,8.144,,1.9043E+00,,-3.501E-06,,19.4107,19.3942,0.1028,,97.983,73.722,,,,,,,,,,,,
CalCOFI,2007SR,016,,2007_016d,16-Jul-2020 05:56:23,15-Jul-2020 21:56:23,30.18140,-122.92116,093.3 110.0,093.3,110.0,25.000,25.173,,19.3757,,19.3688,,19.3723,33.4517,,33.4519,33.4506,,33.4522,33.4521,5.1766,,5.3913,5.3276,3.8954,,5.3583,4.1430,4.7353,225.823,235.2485,232.8033,169.934,386.7860,177.6930,205.2482,0.0319,,,0.0571,0.3254,,0.0000,0.150,23.7437,,23.7447,,0.6567,84.8587,,8.143,,1.9043E+00,,1.0000E-12,,19.3712,19.3644,0.1069,,97.984,73.724,,,,,,,,,,,,
CalCOFI,2007SR,016,,2007_016d,16-Jul-2020 05:56:25,15-Jul-2020 21:56:25,30.18140,-122.92116,093.3 110.0,093.3,110.0,26.000,26.180,,19.3757,,19.3690,,19.3724,33.4497,,33.4499,33.4494,,33.4510,33.4505,5.1807,,5.3956,5.3319,3.8960,,5.3597,4.1443,4.7381,226.003,235.4364,232.9916,169.958,387.2263,177.7483,205.3700,0.0325,,,0.0598,0.3238,,0.0000,0.106,23.7423,,23.7438,,0.6569,84.8551,,8.142,,1.9043E+00,,1.0000E-12,,19.3710,19.3644,0.1111,,98.061,73.734,26,19.221,33.3978,5.446,237.72,0.074,0.017,0.0,0.00,0.06,0.26,1.33
CalCOFI,2007SR,016,,2007_016d,16-Jul-2020 05:56:27,15-Jul-2020 21:56:27,30.18140,-122.92116,093.3 110.0,093.3,110.0,27.000,27.187,,19.3350,,19.3457,,19.3404,33.4417,,33.4419,33.4438,,33.4454,33.4437,5.1835,,5.3985,5.3348,3.8982,,5.3650,4.1490,4.7419,226.127,235.5659,233.1213,170.056,387.5295,177.9738,205.5476,0.0317,,,0.0561,0.3214,,0.0000,0.039,23.7466,,23.7455,,0.6576,84.8389,,8.143,,1.9043E+00,,1.0000E-12,,19.3302,19.3408,0.1153,,98.036,73.742,,,,,,,,,,,,
CalCOFI,2007SR,016,,2007_016d,16-Jul-2020 05:56:28,15-Jul-2020 21:56:28,30.18140,-122.92116,093.3 110.0,093.3,110.0,28.000,28.194,,19.3361,,19.3406,,19.3384,33.4435,,33.4437,33.4442,,33.4458,33.4448,5.1855,,5.4006,5.3369,3.8970,,5.3621,4.1464,4.7417,226.212,235.6546,233.2102,170.004,387.7374,177.8541,205.5322,0.0321,,,0.0580,0.3195,,0.0000,0.000,23.7478,,23.7472,,0.6585,84.8212,,8.143,,1.9043E+00,,1.0000E-12,,19.3310,19.3356,0.1195,,98.076,73.713,,,,,,,,,,,,
CalCOFI,2007SR,016,,2007_016d,16-Jul-2020 05:56:32,15-Jul-2020 21:56:32,30.18140,-122.92116,093.3 110.0,093.3,110.0,29.000,29.201,,19.3425,,19.3386,,19.3406,33.4442,,33.4444,33.4452,,33.4468,33.4456,5.1756,,5.3903,5.3266,3.8966,,5.3612,4.1456,4.7361,225.781,235.2047,232.7594,169.983,386.6833,177.8058,205.2826,0.0326,,,0.0603,0.3172,,0.0000,0.000,23.7467,,23.7484,,0.6587,84.8164,,8.141,,1.9043E+00,,1.0000E-12,,19.3373,19.3334,0.1236,,97.902,73.702,,,,,,,,,,,,
CalCOFI,2007SR,016,,2007_016d,16-Jul-2020 05:56:33,15-Jul-2020 21:56:33,30.18140,-122.92116,093.3 110.0,093.3,110.0,30.000,30.208,,19.3070,,19.3206,,19.3138,33.4330,,33.4332,33.4343,,33.4359,33.4346,5.1830,,5.3980,5.3343,3.8982,,5.3650,4.1490,4.7417,226.102,235.5398,233.0951,170.057,387.4684,177.9761,205.5356,0.0314,,,0.0548,0.3173,,0.0000,0.000,23.7473,,23.7448,,0.6588,84.8159,,8.141,,1.9043E+00,,1.0000E-12,,19.3016,19.3152,0.1278,,97.969,73.704,,,,,,,,,,,,
CalCOFI,2007SR,016,,2007_016d,16-Jul-2020 05:56:34,15-Jul-2020 21:56:34,30.18140,-122.92116,093.3 110.0,093.3,110.0,31.000,31.215,,19.2547,,19.2581,,19.2564,33.4303,,33.4305,33.4303,,33.4319,33.4312,5.1897,,5.4050,5.3413,3.9038,,5.3783,4.1611,4.7512,226.392,235.8425,233.3984,170.299,388.1777,178.5329,205.9657,0.0324,,,0.0594,0.3174,,0.0000,0.000,23.7586,,23.7578,,0.6606,84.7765,,8.142,,1.9043E+00,,1.0000E-12,,19.2492,19.2525,0.1320,,97.999,73.723,,,,,,,,,,,,
CalCOFI,2007SR,016,,2007_016d,16-Jul-2020 05:56:36,15-Jul-2020 21:56:36,30.18140,-122.92115,093.3 110.0,093.3,110.0,32.000,32.222,,19.2817,,19.2808,,19.2813,33.4347,,33.4349,33.4344,,33.4360,33.4355,5.1892,,5.4045,5.3408,3.9016,,5.3731,4.1564,4.7486,226.371,235.8206,233.3765,170.204,388.1263,178.3143,205.8454,0.0326,,,0.0603,0.3187,,0.0000,0.000,23.7551,,23.7551,,0.6600,84.7906,,8.141,,1.9043E+00,,1.0000E-12,,19.2760,19.2751,0.1362,,98.042,73.714,,,,,,,,,,,,
CalCOFI,2007SR,016,,2007_016d,16-Jul-2020 05:56:40,15-Jul-2020 21:56:40,30.18138,-122.92116,093.3 110.0,093.3,110.0,33.000,33.229,,19.2836,,19.2755,,19.2796,33.4331,,33.4333,33.4323,,33.4339,33.4336,5.1789,,5.3937,5.3300,3.8988,,5.3664,4.1503,4.7402,225.921,235.3508,232.9058,170.082,387.0257,178.0336,205.4697,0.0324,,,0.0594,0.3219,,0.0000,0.053,23.7535,,23.7549,,0.6598,84.7933,,8.140,,1.9043E+00,,1.0000E-12,,19.2777,19.2696,0.1404,,97.849,73.653,,,,,,,,,,,,
CalCOFI,2007SR,016,,2007_016d,16-Jul-2020 05:56:42,15-Jul-2020 21:56:42,30.18138,-122.92116,093.3 110.0,093.3,110.0,34.000,34.236,,19.2550,,19.2599,,19.2575,33.4295,,33.4297,33.4313,,33.4329,33.4313,5.1634,,5.3775,5.3139,3.9070,,5.3860,4.1680,4.7410,225.244,234.6441,232.1977,170.437,385.3699,178.8505,205.5241,0.0326,,,0.0603,0.3230,,0.0000,0.084,23.7581,,23.7581,,0.6610,84.7680,,8.141,,1.9043E+00,,1.0000E-12,,19.2490,19.2538,0.1446,,97.502,73.786,,,,,,,,,,,,
CalCOFI,2007SR,016,,2007_016d,16-Jul-2020 05:56:43,15-Jul-2020 21:56:43,30.18138,-122.92114,093.3 110.0,093.3,110.0,35.000,35.243,,19.2619,,19.2656,,19.2638,33.4330,,33.4332,33.4340,,33.4356,33.4344,5.2436,,5.4613,5.3974,3.9115,,5.3967,4.1778,4.7876,228.744,238.2978,235.8584,170.632,393.9304,179.2992,207.5788,0.0322,,,0.0584,0.3244,,0.0000,0.122,23.7590,,23.7588,,0.6601,84.7886,,8.141,,1.9043E+00,,1.0000E-12,,19.2557,19.2594,0.1487,,99.032,73.879,,,,,,,,,,,,
CalCOFI,2007SR,016,,2007_016d,16-Jul-2020 05:56:44,15-Jul-2020 21:56:44,30.18138,-122.92114,093.3 110.0,093.3,110.0,36.000,36.250,,18.9555,,18.9874,,18.9715,33.3871,,33.3873,33.3867,,33.3883,33.3878,5.2166,,5.4331,5.3693,3.9292,,5.4390,4.2160,4.7927,227.559,237.0607,234.6190,171.400,391.0320,181.0665,207.8428,0.0325,,,0.0598,0.3266,,0.0000,0.183,23.8015,,23.7931,,0.6652,84.6797,,8.143,,1.9043E+00,,1.0000E-12,,18.9491,18.9810,0.1529,,97.935,73.808,,,,,,,,,,,,
CalCOFI,2007SR,016,,2007_016d,16-Jul-2020 05:56:47,15-Jul-2020 21:56:47,30.18138,-122.92114,093.3 110.0,093.3,110.0,37.000,37.257,,18.9005,,18.7947,,18.8476,33.3947,,33.3949,33.3945,,33.3961,33.3955,5.2102,,5.4264,5.3626,3.9510,,5.4910,4.2631,4.8129,227.273,236.7622,234.3199,172.343,390.3325,183.2364,208.7782,0.0342,,,0.0675,0.3296,,0.0000,0.266,23.8213,,23.8478,,0.6699,84.5795,,8.144,,1.9043E+00,,1.0000E-12,,18.8939,18.7882,0.1570,,97.719,73.955,,,,,,,,,,,,
CalCOFI,2007SR,016,,2007_016d,16-Jul-2020 05:56:50,15-Jul-2020 21:56:50,30.18138,-122.92114,093.3 110.0,093.3,110.0,38.000,38.265,,18.6166,,18.6245,,18.6206,33.3606,,33.3608,33.3623,,33.3639,33.3624,5.3240,,5.5453,5.4811,4.0025,,5.6140,4.3743,4.9277,232.226,241.9326,239.5002,174.584,402.4468,188.3932,213.9467,0.0347,,,0.0698,0.3308,,0.0000,0.299,23.8665,,23.8658,,0.6739,84.4959,,8.143,,1.9043E+00,,1.0000E-12,,18.6099,18.6179,0.1611,,99.301,74.665,,,,,,,,,,,,
CalCOFI,2007SR,016,,2007_016d,16-Jul-2020 05:56:52,15-Jul-2020 21:56:52,30.18138,-122.92114,093.3 110.0,093.3,110.0,39.000,39.272,,17.7579,,17.7755,,17.7667,33.2422,,33.2424,33.2350,,33.2366,33.2395,5.5179,,5.7480,5.6829,4.0767,,5.7911,4.5346,5.1088,240.656,250.7327,248.3172,177.802,423.0654,195.7982,222.0577,0.0360,,,0.0756,0.3312,,0.0000,0.310,23.9857,,23.9758,,0.6792,84.3842,,8.151,,1.9043E+00,,1.0000E-12,,17.7513,17.7689,0.1651,,101.178,74.776,,,,,,,,,,,,
CalCOFI,2007SR,016,,2007_016d,16-Jul-2020 05:56:53,15-Jul-2020 21:56:53,30.18138,-122.92114,093.3 110.0,093.3,110.0,40.000,40.279,,16.9116,,16.9175,,16.9146,33.1766,,33.1768,33.1732,,33.1748,33.1758,5.6645,,5.9011,5.8355,4.1420,,5.9470,4.6756,5.2556,247.016,257.3719,254.9692,180.622,438.6211,202.2874,228.6283,0.0362,,0.0012,0.0765,0.3307,,0.0000,0.297,24.1373,,24.1333,,0.6796,84.3755,,8.157,,1.9043E+00,,1.0000E-12,,16.9051,16.9110,0.1690,,102.162,74.710,,,,,,,,,,,,
CalCOFI,2007SR,016,,2007_016d,16-Jul-2020 05:56:55,15-Jul-2020 21:56:55,30.18138,-122.92114,093.3 110.0,093.3,110.0,41.000,41.286,,16.4944,,16.4963,,16.4954,33.1237,,33.1239,33.1234,,33.1250,33.1245,5.7281,,5.9676,5.9017,4.1804,,6.0387,4.7585,5.3301,249.775,260.2520,257.8549,182.284,445.3692,206.1118,231.9834,0.0371,,0.0117,0.0805,0.3300,,0.0000,0.277,24.1935,,24.1929,,0.6792,84.3831,,8.160,,1.9043E+00,,1.0000E-12,,16.4878,16.4897,0.1728,,102.444,74.766,,,,,,,,,,,,
CalCOFI,2007SR,016,,2007_016d,16-Jul-2020 05:56:57,15-Jul-2020 21:56:57,30.18138,-122.92114,093.3 110.0,093.3,110.0,42.000,42.293,,16.4051,,16.4183,,16.4117,33.1165,,33.1167,33.1393,,33.1409,33.1288,5.7206,,5.9598,5.8939,4.2069,,6.1019,4.8158,5.3549,249.445,259.9075,257.5097,183.438,444.5621,208.7673,233.1385,0.0371,,0.0117,0.0805,0.3279,,0.0000,0.219,24.2085,,24.2231,,0.6789,84.3885,,8.157,,1.9043E+00,,1.0000E-12,,16.3985,16.4116,0.1765,,102.129,75.134,42,15.987,33.1080,,262.74,0.105,0.024,0.0,0.00,0.06,0.29,1.27
CalCOFI,2007SR,016,,2007_016d,16-Jul-2020 05:57:00,15-Jul-2020 21:57:00,30.18138,-122.92114,093.3 110.0,093.3,110.0,43.000,43.300,,16.1219,,16.1312,,16.1266,33.0713,,33.0715,33.0714,,33.0730,33.0723,5.7949,,6.0374,5.9712,4.2480,,6.2001,4.9045,5.4379,252.677,263.2814,260.8901,185.225,452.4671,212.8794,236.8848,0.0360,,,0.0756,0.3253,,0.0000,0.147,24.2384,,24.2363,,0.6784,84.3998,,8.159,,1.9043E+00,,1.0000E-12,,16.1151,16.1244,0.1802,,102.854,75.411,,,,,,,,,,,,
CalCOFI,2007SR,016,,2007_016d,16-Jul-2020 05:57:01,15-Jul-2020 21:57:01,30.18138,-122.92114,093.3 110.0,093.3,110.0,44.000,44.307,,15.8531,,15.8623,,15.8577,33.0798,,33.0800,33.0804,,33.0820,33.0810,5.8226,,6.0663,6.0000,4.2716,,6.2564,4.9555,5.4778,253.866,264.5226,262.1337,186.244,455.3752,215.2242,238.6790,0.0381,,0.0235,0.0848,0.3245,,0.0000,0.125,24.3056,,24.3039,,0.6766,84.4382,,8.159,,1.9043E+00,,1.0000E-12,,15.8462,15.8554,0.1839,,102.808,75.436,,,,,,,,,,,,
CalCOFI,2007SR,016,,2007_016d,16-Jul-2020 05:57:03,15-Jul-2020 21:57:03,30.18138,-122.92114,093.3 110.0,093.3,110.0,45.000,45.314,,15.7927,,15.7920,,15.7924,33.1153,,33.1155,33.1197,,33.1213,33.1184,5.8019,,6.0447,5.9785,4.2910,,6.3027,4.9974,5.4880,252.953,263.5695,261.1788,187.080,453.1421,217.1479,239.1634,0.0378,,0.0199,0.0835,0.3230,,0.0000,0.084,24.3464,,24.3499,,0.6716,84.5437,,8.161,,1.9043E+00,,1.0000E-12,,15.7857,15.7850,0.1875,,102.342,75.692,,,,,,,,,,,,
CalCOFI,2007SR,016,,2007_016d,16-Jul-2020 05:57:06,15-Jul-2020 21:57:06,30.18138,-122.92114,093.3 110.0,093.3,110.0,46.000,46.321,,15.4595,,15.5139,,15.4867,33.0655,,33.0657,33.0725,,33.0741,33.0699,5.8530,,6.0981,6.0317,4.3399,,6.4194,5.1030,5.5674,255.173,265.8870,263.5007,189.208,458.5719,222.0447,242.7727,0.0362,,0.0012,0.0765,0.3204,,0.0000,0.012,24.3820,,24.3754,,0.6703,84.5708,,8.161,,1.9043E+00,,1.0000E-12,,15.4525,15.5069,0.1911,,102.536,76.113,,,,,,,,,,,,
CalCOFI,2007SR,016,,2007_016d,16-Jul-2020 05:57:08,15-Jul-2020 21:57:08,30.18138,-122.92114,093.3 110.0,093.3,110.0,47.000,47.328,,15.1372,,15.1378,,15.1375,33.0257,,33.0259,33.0273,,33.0289,33.0274,5.9005,,6.1477,6.0811,4.3785,,6.5116,5.1864,5.6338,257.234,268.0385,265.6563,190.880,463.6128,225.8922,245.7743,0.0365,,0.0047,0.0778,0.3211,,0.0000,0.031,24.4220,,24.4231,,0.6700,84.5784,,8.164,,1.9043E+00,,1.0000E-12,,15.1301,15.1307,0.1947,,102.683,76.198,,,,,,,,,,,,
CalCOFI,2007SR,016,,2007_016d,16-Jul-2020 05:57:09,15-Jul-2020 21:57:09,30.18138,-122.92114,093.3 110.0,093.3,110.0,48.000,48.335,,14.9924,,14.9919,,14.9922,33.0120,,33.0122,33.0136,,33.0152,33.0137,5.9246,,6.1729,6.1062,4.3958,,6.5529,5.2238,5.6650,258.280,269.1304,266.7503,191.632,466.1712,227.6226,247.1865,0.0365,,0.0047,0.0778,0.3226,,0.0000,0.073,24.4429,,24.4442,,0.6671,84.6401,,8.163,,1.9043E+00,,1.0000E-12,,14.9853,14.9847,0.1982,,102.797,76.271,,,,,,,,,,,,
CalCOFI,2007SR,016,,2007_016d,16-Jul-2020 05:57:11,15-Jul-2020 21:57:11,30.18138,-122.92114,093.3 110.0,093.3,110.0,49.000,49.342,,14.8763,,14.8786,,14.8775,33.0036,,33.0038,33.0058,,33.0074,33.0056,5.9422,,6.1913,6.1245,4.4093,,6.5851,5.2529,5.6887,259.041,269.9248,267.5463,192.220,468.0325,228.9757,248.2610,0.0362,,0.0012,0.0765,0.3250,,0.0000,0.139,24.4614,,24.4626,,0.6654,84.6734,,8.163,,1.9043E+00,,1.0000E-12,,14.8690,14.8713,0.2017,,102.857,76.329,,,,,,,,,,,,